This is the latest recevied weather packets stored in our database for station/object N3AVN. If no packets are shown the sender has not sent any weather packets the latest 10 day(s).
| Time | Temp. | Humidity | Pressure | Rain* | Wind** | Luminosity | Snow |
|---|---|---|---|---|---|---|---|
| 1778024708 | 20.56° C | 61% | 1006.3 hPa | 0 mm | - | 0 W/m² | - |
| 1778024404 | 20.56° C | 60% | 1006.3 hPa | 0 mm | - | 2 W/m² | - |
| 1778024102 | 20.56° C | 60% | 1006.4 hPa | 0 mm | - | 4 W/m² | - |
| 1778023799 | 20.56° C | 60% | 1006.3 hPa | 0 mm | - | 6 W/m² | - |
| 1778023497 | 20.56° C | 60% | 1006 hPa | 0 mm | - | 10 W/m² | - |
| 1778023194 | 20.56° C | 59% | 1006 hPa | 0 mm | - | 11 W/m² | - |
| 1778022891 | 21.11° C | 59% | 1006.1 hPa | 0 mm | - | 13 W/m² | - |
| 1778022589 | 21.11° C | 58% | 1006.1 hPa | 0 mm | - | 17 W/m² | - |
| 1778022287 | 21.11° C | 58% | 1006 hPa | 0 mm | - | 21 W/m² | - |
| 1778021983 | 21.67° C | 58% | 1005.7 hPa | 0 mm | - | 23 W/m² | - |
| 1778021680 | 21.67° C | 58% | 1005.9 hPa | 0 mm | - | 29 W/m² | - |
| 1778021376 | 21.67° C | 57% | 1005.7 hPa | 0 mm | - | 37 W/m² | - |
| 1778021073 | 22.22° C | 57% | 1005.8 hPa | 0 mm | - | 43 W/m² | - |
| 1778020770 | 22.22° C | 56% | 1005.9 hPa | 0 mm | - | 48 W/m² | - |
| 1778020467 | 22.22° C | 56% | 1005.6 hPa | 0 mm | - | 54 W/m² | - |
| 1778020163 | 22.22° C | 56% | 1005.7 hPa | 0 mm | - | 55 W/m² | - |
| 1778019860 | 22.22° C | 55% | 1005.6 hPa | 0 mm | - | 54 W/m² | - |
| 1778019556 | 22.22° C | 55% | 1005.7 hPa | 0 mm | - | 53 W/m² | - |
| 1778019253 | 22.22° C | 55% | 1005.6 hPa | 0 mm | - | 51 W/m² | - |
| 1778018950 | 22.78° C | 54% | 1005.6 hPa | 0 mm | - | 44 W/m² | - |
| 1778018647 | 22.78° C | 54% | 1005.4 hPa | 0 mm | - | 45 W/m² | - |
| 1778018345 | 23.33° C | 53% | 1005.2 hPa | 0 mm | - | 54 W/m² | - |
| 1778018043 | 23.33° C | 52% | 1005.5 hPa | 0 mm | - | 57 W/m² | - |
| 1778017741 | 23.33° C | 52% | 1005.4 hPa | 0 mm | - | 67 W/m² | - |
| 1778017438 | 23.89° C | 52% | 1005.6 hPa | 0 mm | - | 70 W/m² | - |
* Rain latest hour (hover to see other rain measurements)
** Current wind speed in m/s (hover to see current wind gust speed)